SKYSAT-C7 (42991 NORAD) Tracking and Keplerian Element Data

This shows tracking and keplerian element data for the satellite.

Feedback or suggestion? Click here.




ElementValue
Catalog42991
NameSKYSAT-C7
Epoch Orbit5774
Epoch Day319.88814406
Epoch Year2018
RAAN71.6864
Inclination97.4162
Eccentricity0.0005338
Argument of Perigee332.045
Mean Anonmoly144.4339
Mean Motion15.21575672
Decay Rate7.09E-06
L11 42991U 17068E 18319.88814406 .00000709 00000-0 34490-4 0 9998
L22 42991 97.4162 71.6864 0005338 332.0450 144.4339 15.21575672 57746

Live tracking and technical data element details for SKYSAT-C7 (NORAD 42991). SKYSAT-C7 can be tracked NOW for your location showing map with azimuth and elevation plus other details from your city location.

Track the satellite on the map from your city or location and see movement details for azimuth, elevation, latitude, longitude, range, height, and movement on the map or in text.







IsCatalogInMostPopularTable: catalog: 42991, numindb: 139
Update: records affected: 1



GetName: 42991 SKYSAT-C7

Hit Count: updated at: Fri, 16 Nov 2018 11:18:56 GMT